GFSCGP_850_thetae_009.txt.gz
Theta_e
316 313 314 313 310 310 310 310 309 309 310 309 308 309 304 303 300 298 298 297 296 295 294 294 294 293 291 291 291 291 292 292 290 290 289 291 292 291 291 291 292 293 294 295
311 314 312 310 309 310 311 311 309 309 309 309 308 307 307 301 299 298 297 297 295 294 294 294 293 292 291 290 291 291 292 291 291 289 289 288 287 288 287 288 291 292 292 293
313 314 309 309 310 311 310 309 308 309 307 306 305 305 303 300 299 298 298 297 294 294 294 293 292 291 290 290 290 291 291 291 290 289 288 288 287 287 286 287 289 290 291 292
309 309 309 310 310 310 308 307 307 306 306 305 305 305 301 298 298 297 297 295 294 294 293 293 292 291 290 289 290 290 290 289 289 288 287 286 284 283 282 282 284 287 290 291
313 308 307 308 308 309 308 305 305 305 304 304 304 303 303 299 298 297 294 294 294 293 293 292 291 291 290 289 289 289 289 288 287 286 286 285 283 282 281 281 281 283 287 290
309 307 306 306 308 307 305 306 305 304 302 303 304 304 302 298 299 297 293 293 293 293 292 292 291 290 289 289 289 289 288 287 286 285 285 283 282 281 279 279 279 280 282 287
309 307 306 307 307 306 306 304 306 305 304 307 301 301 304 300 298 297 292 293 293 292 292 291 290 289 289 289 288 288 287 287 286 284 282 282 281 280 278 278 278 279 280 283
310 312 307 304 306 306 305 303 305 306 306 307 301 303 302 296 295 294 293 293 292 292 292 291 290 289 288 288 288 288 287 286 285 283 281 282 281 279 278 278 278 277 278 280
310 309 301 299 301 303 304 303 302 303 289 295 299 299 297 295 294 293 292 292 292 292 291 291 290 289 288 288 287 287 286 286 285 282 281 282 280 279 277 276 277 277 278 279
307 308 302 298 299 299 300 300 301 301 306 298 300 301 303 295 294 292 291 292 292 292 291 291 289 288 288 288 287 286 285 285 283 281 280 281 280 278 276 275 275 276 277 278
303 304 304 299 298 300 295 298 298 299 302 304 300 304 297 296 295 292 291 292 292 291 291 290 289 288 288 288 286 286 285 283 282 280 279 280 279 277 275 274 274 275 275 277
301 301 301 301 298 297 297 298 299 302 303 298 300 302 297 296 295 292 292 292 291 291 291 289 288 288 288 286 286 285 284 283 282 279 278 279 278 276 274 274 273 273 273 275
299 300 301 308 295 294 295 294 296 297 298 300 300 301 295 294 292 293 291 291 291 291 290 289 288 288 287 286 285 284 284 283 281 278 278 280 278 275 273 273 272 272 273 273
300 301 308 313 312 299 299 294 295 297 300 301 301 301 297 294 293 291 291 291 291 290 289 289 288 287 286 285 284 283 284 282 280 279 279 280 276 274 272 272 271 271 272 273
298 300 300 303 303 302 303 302 297 296 298 300 302 301 300 300 298 295 291 291 291 290 289 289 288 287 285 284 283 283 283 280 278 278 280 278 275 273 271 271 270 271 271 272
297 301 301 303 301 301 301 300 298 298 298 298 298 298 299 298 294 291 291 291 290 289 289 288 287 286 284 283 282 282 281 280 278 278 279 278 275 272 270 270 269 270 270 271
298 299 300 306 301 298 301 299 298 299 298 298 297 298 299 296 292 290 290 290 290 289 288 287 286 284 283 282 280 280 279 278 277 278 279 277 274 271 270 271 270 271 271 271
299 300 299 300 299 303 304 294 296 298 298 297 297 297 296 292 292 291 290 290 289 288 288 286 285 284 283 281 280 279 278 276 276 278 278 276 273 269 271 271 270 272 272 272
302 301 299 301 300 301 302 300 292 293 299 294 295 296 294 291 290 288 289 289 289 289 286 285 284 283 282 280 279 278 277 275 276 277 277 276 274 269 270 269 270 271 271 273
298 300 302 297 298 299 297 290 291 291 295 292 293 292 290 290 288 288 288 289 289 287 286 285 284 282 281 279 277 277 276 275 275 277 278 277 274 269 269 268 269 271 272 273
297 297 298 300 299 297 295 290 291 294 299 291 292 290 290 290 290 290 290 289 288 286 285 284 283 281 278 277 276 276 274 274 275 277 277 277 272 269 269 269 269 270 273 275
298 297 297 297 297 298 293 290 294 294 292 292 291 291 291 291 290 290 289 288 286 285 284 282 281 279 277 276 275 274 274 274 275 277 278 278 271 271 271 268 270 270 274 276
301 299 296 297 298 294 292 292 293 293 292 291 292 291 291 290 290 290 289 287 285 284 283 281 279 277 275 274 273 273 273 274 275 277 278 276 272 272 270 269 269 269 272 274
295 297 297 296 298 294 291 293 293 292 293 292 292 291 291 290 290 289 287 285 284 283 281 280 278 277 275 273 272 272 273 273 275 277 276 275 272 273 270 270 268 267 269 271
298 296 297 297 296 295 293 292 293 292 292 291 291 291 290 289 288 288 286 284 283 282 281 280 278 276 274 273 273 273 273 273 274 276 275 273 272 270 270 269 267 266 268 270
295 297 298 299 297 298 296 295 293 292 291 291 291 290 289 289 288 287 285 284 283 282 281 279 277 276 274 273 273 273 272 272 273 274 274 273 272 270 270 270 269 270 265 267

GFSCGP_850_thetae_015.txt.gz
Theta_e
313 312 312 312 309 311 309 308 306 306 307 309 308 308 310 305 301 301 300 299 299 297 296 295 294 294 294 292 292 291 292 292 292 291 292 292 291 292 292 292 291 291 291 292
311 312 312 311 308 309 308 308 307 306 306 306 306 306 307 303 302 302 300 298 299 296 295 294 294 293 293 292 292 291 291 291 291 290 291 290 290 290 291 290 290 290 290 290
312 313 309 309 309 309 307 308 307 308 304 303 302 302 305 304 303 304 301 299 298 298 295 294 293 293 292 292 292 292 291 290 290 290 290 290 290 291 290 289 289 290 289 289
310 309 308 308 308 306 307 306 307 306 305 306 304 309 304 303 302 299 299 298 298 297 295 295 293 293 292 292 291 291 291 290 290 290 290 289 289 289 289 289 289 289 289 289
314 306 306 307 306 305 308 305 305 305 304 303 303 303 303 300 301 303 297 296 296 298 295 294 293 293 292 291 291 290 291 290 290 289 289 289 288 288 288 288 288 289 289 288
309 307 305 306 306 305 305 305 304 299 301 304 304 304 303 302 302 301 298 296 296 297 295 294 293 292 291 291 291 290 290 289 288 288 288 288 287 287 287 288 288 288 288 287
309 306 305 306 307 305 305 305 310 310 304 310 300 301 308 306 303 299 298 296 296 296 294 293 292 292 291 291 290 290 289 288 288 287 287 287 287 286 287 287 286 285 286 287
312 314 305 304 306 308 304 306 310 309 308 310 301 305 306 300 296 296 296 299 296 294 294 293 292 292 291 290 290 289 288 288 287 287 287 286 286 286 286 285 284 284 285 285
309 309 301 302 302 304 304 304 303 305 286 296 305 301 301 295 293 292 295 297 294 293 294 293 292 292 291 290 289 288 288 287 287 287 286 286 286 286 285 284 283 284 285 285
309 310 301 298 300 297 301 300 303 300 302 303 305 304 309 303 298 291 290 291 292 292 293 292 292 291 290 289 289 288 287 287 287 286 286 286 285 284 284 283 283 284 284 284
304 308 303 299 300 302 298 300 299 300 304 305 303 310 303 305 299 293 291 292 293 292 293 292 292 291 289 289 288 288 288 287 287 286 286 285 285 284 283 282 283 284 284 283
303 305 305 301 296 296 300 301 302 304 302 299 303 310 299 299 299 293 292 293 293 293 293 292 292 290 289 289 288 288 288 286 286 285 285 285 284 283 282 282 282 283 283 282
302 304 303 306 302 297 296 297 300 299 300 307 306 310 296 297 295 294 293 293 293 292 292 292 291 290 289 288 288 288 287 286 285 285 285 284 283 283 282 282 282 283 281 280
306 304 307 311 308 299 298 297 297 302 304 308 308 308 307 306 302 294 294 294 294 292 292 291 291 290 289 288 288 287 286 285 285 285 284 283 283 283 281 281 282 281 279 278
303 309 304 309 309 303 305 306 296 299 303 307 309 308 308 307 307 303 302 296 291 291 292 291 290 289 288 288 287 285 285 285 284 284 284 283 283 282 281 281 281 280 279 277
297 307 303 307 305 303 305 307 306 302 304 305 306 306 307 307 307 305 299 293 290 290 291 290 290 289 288 287 285 285 284 284 284 284 284 282 281 280 280 281 280 279 279 276
296 299 301 309 306 304 307 308 307 308 307 307 307 307 307 306 298 296 297 294 292 290 291 291 289 288 287 285 285 285 285 285 284 283 283 281 279 279 280 280 280 278 277 273
297 299 303 306 304 310 310 303 305 305 306 306 306 306 306 305 299 300 301 299 292 290 291 290 288 287 286 285 285 285 285 284 284 283 281 279 278 279 279 280 279 277 273 272
303 303 307 309 310 309 309 306 301 302 307 304 303 304 304 296 292 293 296 295 295 292 291 289 287 286 285 285 285 285 284 284 283 282 280 278 277 278 278 279 278 274 273 271
300 303 309 310 311 313 311 296 294 297 303 306 303 302 302 291 294 299 293 291 291 291 289 287 286 286 285 285 285 285 284 283 282 280 278 276 276 277 278 277 276 275 271 270
303 303 307 310 313 311 308 292 295 303 310 299 300 300 291 294 297 296 293 290 290 289 288 287 286 285 285 285 284 284 283 282 280 278 276 276 275 277 277 276 275 273 270 269
305 304 305 306 310 311 295 291 302 304 297 298 297 297 293 294 293 294 291 289 288 288 286 286 285 285 285 284 284 284 283 281 278 276 275 275 275 276 276 275 275 272 268 267
310 308 309 307 308 301 297 304 299 302 300 295 297 297 296 293 292 290 289 288 288 287 286 285 284 285 284 284 284 283 281 279 277 275 275 274 274 275 276 275 274 272 268 266
303 301 305 301 306 300 296 298 297 298 298 299 298 297 294 293 291 288 289 288 287 286 285 285 285 284 284 283 283 282 281 278 276 274 274 273 273 275 275 275 273 271 267 266
309 301 305 304 304 301 303 302 299 298 297 297 296 295 295 293 290 291 288 288 287 286 284 285 284 284 283 282 282 281 279 277 275 273 272 272 272 274 274 274 273 271 268 267
304 307 306 309 308 307 308 307 303 297 296 296 295 292 293 293 293 289 288 289 287 285 285 285 284 283 283 282 281 279 277 275 274 272 272 271 272 272 273 273 275 273 271 268

GFSCGP_850_thetae_021.txt.gz
Theta_e
312 311 311 310 309 310 311 310 310 307 305 307 306 308 309 310 306 304 306 304 305 307 306 304 302 300 297 296 296 296 295 294 294 294 294 294 294 295 294 294 292 291 291 291
310 312 309 309 308 309 308 309 307 306 305 304 305 306 307 307 309 308 306 304 305 305 304 304 302 299 298 297 296 295 294 293 293 293 293 293 294 295 294 292 291 291 291 291
309 311 307 309 308 308 307 307 307 308 304 302 302 303 303 304 305 307 307 306 307 307 306 304 302 300 298 296 295 295 294 292 292 292 292 292 293 293 293 292 292 291 291 290
309 308 309 309 309 307 310 305 306 306 306 308 303 310 306 305 306 305 307 307 309 308 307 304 303 301 298 296 295 294 292 291 291 291 292 292 292 292 291 290 290 290 289 288
311 306 307 309 308 306 309 304 304 304 304 302 303 304 307 301 306 308 307 309 309 308 308 307 305 303 301 296 295 294 292 291 291 291 291 291 291 291 291 290 289 288 288 288
308 306 305 308 303 304 302 304 302 298 300 305 307 307 305 304 305 306 306 309 309 309 308 306 303 300 299 297 294 293 291 291 291 291 291 290 291 290 290 289 288 287 288 288
310 306 304 305 307 304 304 307 310 308 306 311 300 302 309 306 303 305 308 309 308 306 306 305 302 300 298 297 294 293 291 291 291 291 291 290 290 289 289 288 287 287 288 287
311 311 304 303 307 308 303 307 310 307 307 309 299 305 309 303 306 306 306 308 305 306 305 304 303 301 299 297 294 293 291 291 291 291 290 290 289 288 288 287 287 287 287 286
309 310 302 301 302 304 304 306 305 306 288 301 308 305 304 302 301 300 301 301 303 304 306 306 304 301 298 297 294 293 291 291 291 290 290 290 288 287 287 287 287 287 286 286
311 312 302 299 299 298 302 301 306 304 307 304 308 308 309 307 306 304 301 301 304 306 306 307 305 301 298 296 294 292 291 291 290 290 290 289 288 287 287 287 287 286 285 285
308 311 307 301 301 302 300 301 301 303 304 307 308 310 304 306 304 305 303 305 305 307 308 308 306 303 299 296 293 292 291 290 290 289 289 288 287 286 286 286 286 285 285 285
306 309 313 310 298 296 300 303 304 307 306 300 302 310 306 306 303 301 304 305 306 307 307 306 305 303 299 294 292 291 290 290 289 289 288 287 286 286 286 286 286 285 285 284
305 308 311 311 302 299 300 299 301 301 302 307 306 310 305 301 302 303 303 305 305 306 306 305 302 301 298 294 292 291 290 289 289 288 287 287 286 286 286 285 285 285 284 284
308 308 312 311 309 303 302 299 302 304 308 308 307 308 308 309 306 304 304 306 304 304 305 303 301 300 296 293 291 290 289 288 288 287 286 286 286 286 286 285 285 284 284 282
306 310 310 311 310 306 304 304 303 303 305 307 308 307 308 308 307 307 307 307 306 305 306 304 302 299 295 292 290 289 289 288 288 287 286 286 286 286 285 285 284 283 282 281
301 309 309 309 308 308 308 306 308 306 305 305 306 306 307 307 307 307 307 307 306 305 305 305 304 299 295 292 290 289 288 288 287 286 286 286 285 285 285 284 283 282 281 280
301 304 303 310 308 306 306 307 308 308 308 308 308 308 308 307 306 306 306 306 306 305 305 305 304 301 295 291 290 289 288 287 286 285 285 285 285 285 284 283 282 281 280 280
305 303 306 309 307 309 308 306 305 306 307 307 307 308 308 307 308 308 307 307 306 306 307 305 302 297 292 290 289 288 287 286 285 285 285 285 285 284 283 281 280 279 279 279
306 307 308 309 310 309 308 307 304 304 306 306 307 307 307 307 305 305 306 307 307 306 305 303 300 296 292 289 288 287 286 285 285 285 285 285 284 283 281 279 279 278 278 279
307 306 308 310 310 311 308 307 306 304 307 307 307 307 307 306 305 307 307 306 307 304 301 300 297 293 289 288 287 286 285 285 285 285 285 284 283 281 280 278 277 277 277 278
304 308 309 309 311 310 307 307 303 306 309 309 306 306 305 305 306 307 304 304 303 300 298 295 293 290 288 287 286 285 285 285 285 285 284 283 282 280 278 277 276 276 277 277
309 307 308 309 310 310 306 305 306 308 309 309 308 306 306 307 307 307 306 302 300 298 293 291 290 288 286 286 285 285 285 285 285 285 283 281 280 279 277 276 276 276 276 277
311 309 311 309 309 304 305 307 308 308 308 309 307 307 307 306 307 307 303 298 297 294 291 288 288 286 285 285 284 285 285 285 285 284 282 280 279 277 276 276 275 275 275 275
307 308 309 309 308 304 303 307 308 308 307 308 307 308 307 306 306 302 299 296 292 290 288 287 286 286 285 284 285 285 285 285 284 283 281 279 278 277 276 275 274 274 274 274
309 306 308 308 308 307 308 308 308 308 307 307 307 306 306 305 305 303 300 296 292 289 288 286 286 286 285 284 284 284 285 284 283 282 280 279 277 277 275 273 273 273 273 271
307 309 310 311 308 308 308 309 309 308 308 308 307 305 304 304 304 301 298 295 292 290 287 285 285 285 285 284 284 284 283 282 282 280 279 277 277 276 274 273 273 272 273 273

GFSCGP_850_thetae_024.txt.gz
Theta_e
314 317 318 318 318 317 314 315 316 318 311 313 315 314 314 314 313 312 312 312 311 307 307 307 307 305 303 300 299 298 298 297 295 295 294 295 295 296 297 297 296 294 293 292
315 316 317 315 313 314 315 317 318 317 309 310 313 312 312 312 312 312 312 313 312 308 305 304 304 304 303 301 299 298 297 296 295 295 294 294 295 295 296 296 295 294 293 292
315 316 310 313 314 314 315 317 318 315 311 308 308 312 312 311 309 310 311 311 311 309 307 304 304 305 303 301 300 298 297 296 295 294 294 294 294 295 295 295 294 293 292 291
314 313 313 313 315 314 317 314 313 312 312 317 309 316 315 314 312 311 312 313 310 310 309 306 306 306 305 303 300 298 297 296 295 294 293 293 294 294 294 294 293 292 291 290
315 311 311 314 315 313 316 307 309 309 311 309 314 312 314 307 310 312 313 313 311 309 309 310 310 308 306 304 302 299 296 295 294 293 293 292 293 293 293 293 292 291 290 289
313 306 309 313 305 307 305 308 308 306 309 314 315 314 314 312 312 312 312 312 311 310 310 309 308 306 304 302 301 299 296 295 294 293 292 291 292 291 291 290 289 289 289 289
313 311 307 306 310 306 308 313 317 320 318 318 309 309 312 311 311 311 314 314 309 309 308 308 308 307 305 304 303 299 296 295 293 292 291 291 291 290 290 288 289 289 288 288
316 315 309 308 313 316 310 314 320 321 317 317 307 310 313 311 311 311 308 309 308 307 307 307 307 306 306 305 303 300 297 294 293 292 290 290 290 290 289 289 289 288 288 288
314 315 304 303 304 308 309 312 311 316 305 312 314 315 312 309 309 308 306 306 307 307 308 308 307 306 306 307 306 302 298 295 293 291 290 290 290 290 289 289 288 288 287 287
313 315 307 301 302 301 306 306 311 313 319 318 316 316 316 312 310 309 308 308 310 308 309 308 308 307 307 307 305 301 299 296 293 291 290 289 289 289 289 288 287 287 287 287
311 314 311 303 305 311 304 308 306 307 310 316 316 315 311 311 310 310 310 310 310 309 309 308 309 309 308 305 304 302 298 294 292 290 289 289 289 289 288 287 287 287 287 287
310 313 317 314 302 300 305 309 310 313 313 311 313 314 309 310 310 309 308 308 309 310 310 308 309 308 307 306 304 300 295 292 292 290 289 289 289 288 287 287 287 287 287 286
308 312 317 316 304 300 305 304 307 309 310 313 315 313 311 311 310 310 308 308 308 309 308 308 308 307 307 304 302 298 294 291 291 289 289 289 289 288 287 287 287 287 286 286
309 312 314 313 312 308 308 305 305 309 312 313 312 312 312 312 311 310 310 307 307 308 307 307 307 307 305 303 300 296 292 290 290 289 289 288 288 287 287 287 287 287 286 285
309 312 312 313 313 311 311 310 309 307 308 310 311 311 311 311 311 311 310 309 309 308 305 306 306 306 303 301 298 294 291 290 289 289 288 288 287 287 286 286 286 286 285 284
306 311 310 310 310 310 311 311 311 311 311 311 309 308 309 309 309 309 309 308 308 307 307 306 305 305 304 302 299 293 291 289 289 288 288 287 286 286 286 286 286 285 284 283
306 308 310 313 312 311 311 311 310 311 310 310 311 311 311 311 310 309 309 309 308 307 307 306 306 306 305 303 299 294 292 289 288 287 287 286 286 286 286 286 285 284 283 282
308 308 309 311 311 311 311 309 309 310 310 310 310 310 310 310 309 308 308 308 308 308 307 307 306 305 304 301 296 292 290 288 287 287 286 286 286 286 286 285 284 283 282 281
309 309 309 310 312 311 308 309 308 309 309 309 309 309 309 308 308 308 308 308 307 307 307 306 305 303 302 299 295 291 288 287 287 286 286 286 286 286 285 283 283 282 281 280
308 308 309 310 311 313 311 309 308 307 308 309 308 308 308 307 309 310 309 308 308 307 307 305 303 301 297 295 293 289 287 287 287 286 286 286 286 284 283 283 282 280 279 279
308 309 309 310 312 312 310 308 305 310 311 310 308 308 308 307 308 309 307 306 307 305 305 305 301 299 298 294 290 287 287 286 286 285 286 286 284 283 282 282 281 280 279 278
311 311 310 309 310 312 309 309 309 311 311 311 311 308 307 309 308 308 309 306 302 303 303 301 298 296 293 291 288 287 286 286 285 286 286 285 284 282 282 281 280 279 278 277
312 312 312 311 312 310 310 310 309 309 310 310 310 309 308 307 308 309 310 309 309 305 301 298 297 293 290 286 286 286 285 285 285 285 285 284 282 281 281 280 279 278 277 276
311 310 311 311 311 310 309 309 309 309 309 309 308 308 306 306 307 307 307 307 308 305 301 296 293 292 288 285 284 285 285 285 285 284 284 282 281 280 279 278 277 277 276 275
303 304 306 306 305 308 309 309 307 307 307 307 308 307 307 306 306 305 306 305 305 303 299 294 290 288 286 284 283 284 285 285 285 284 282 280 279 278 278 277 276 276 275 273
301 303 304 305 305 307 307 308 308 308 308 308 307 307 307 307 307 306 306 305 303 302 297 291 286 285 285 283 283 284 284 285 284 284 281 279 278 277 277 276 275 274 273 273

GFSCGP_850_thetae_030.txt.gz
Theta_e
314 314 315 315 316 316 317 317 317 317 317 315 314 315 315 316 316 317 317 317 317 317 316 315 314 312 310 308 306 304 304 303 303 302 301 300 300 299 298 297 297 297 298 298
315 316 316 316 316 316 316 316 316 316 315 314 314 315 315 314 315 316 316 316 316 316 315 315 314 312 310 308 306 304 304 304 304 303 302 300 299 298 297 296 296 297 297 298
314 316 316 316 316 315 315 315 315 315 315 312 313 312 313 313 314 315 315 315 315 315 314 315 314 312 310 307 306 305 305 304 304 303 300 298 297 296 296 296 296 296 297 297
314 315 315 314 314 314 314 314 315 315 314 315 313 314 314 314 313 312 314 315 316 315 315 314 314 312 311 309 306 305 304 304 303 303 301 299 299 299 299 299 297 296 296 296
314 314 314 314 314 314 315 312 313 314 315 315 315 314 313 313 312 312 311 316 316 314 315 314 314 313 311 308 306 305 303 303 303 303 301 300 299 297 298 297 295 295 295 295
312 312 312 314 310 312 310 312 312 312 311 313 313 314 313 312 312 313 311 315 314 313 313 313 312 311 309 307 306 305 304 304 302 302 301 300 300 297 296 296 295 294 294 295
313 312 312 310 312 309 311 314 315 316 313 315 312 313 314 313 311 310 310 314 313 313 313 311 310 310 308 308 307 305 305 305 304 303 302 301 300 297 296 296 296 294 294 294
316 317 313 309 312 314 310 313 315 315 313 315 314 313 313 313 312 313 313 314 313 312 312 311 311 311 309 308 308 307 308 306 305 304 303 301 299 297 296 295 294 294 293 293
313 313 308 309 309 312 312 311 313 314 307 311 313 312 312 311 310 310 311 312 311 311 311 310 310 310 309 309 310 309 308 307 305 305 302 301 298 297 296 295 294 293 293 293
313 314 310 305 306 307 308 309 312 312 310 310 312 310 313 314 313 309 309 309 311 311 310 310 310 309 309 309 308 308 307 307 306 304 303 301 298 297 295 294 293 293 292 292
312 313 310 305 306 309 306 308 308 310 313 312 312 313 309 314 313 311 308 311 312 311 311 311 311 310 309 309 309 309 308 307 305 303 301 300 298 297 295 293 292 292 291 291
311 313 314 312 310 306 308 310 309 311 312 310 312 315 310 310 312 310 309 312 311 311 311 311 310 310 309 310 309 308 307 306 305 303 300 299 297 296 294 293 292 291 291 291
310 312 314 313 310 304 307 308 310 311 311 313 314 313 311 312 311 309 308 311 311 310 310 310 310 310 310 310 309 309 307 307 304 302 300 298 295 295 294 292 291 290 290 290
311 311 312 314 312 311 311 309 308 309 311 312 312 312 312 311 311 311 312 312 312 312 311 311 310 310 309 309 309 308 307 306 304 301 298 296 295 294 293 291 290 289 289 290
308 311 311 311 312 311 310 310 310 309 309 310 310 310 310 311 311 311 312 312 311 311 311 311 310 310 309 309 308 308 307 305 303 300 298 296 294 293 291 290 289 289 289 289
309 310 309 310 309 309 310 309 310 309 310 310 310 309 309 309 310 310 309 310 310 311 311 311 311 310 310 309 308 307 306 305 302 299 297 295 293 291 290 289 288 288 288 288
308 309 310 312 310 310 311 310 310 310 310 310 310 310 310 310 310 310 311 311 311 312 311 311 310 310 309 308 307 307 306 304 300 297 296 294 292 291 289 288 287 287 288 287
308 309 311 314 312 313 311 310 310 310 310 310 310 310 311 311 311 311 311 312 311 311 311 311 310 309 309 308 309 307 305 302 299 297 295 293 291 290 288 287 287 287 287 286
312 312 313 314 314 312 311 310 310 311 311 310 310 310 310 311 311 311 312 312 311 311 310 310 310 309 308 308 308 305 303 300 299 296 294 292 291 289 287 287 287 287 286 286
310 311 313 314 315 315 312 310 310 309 311 310 310 310 310 309 310 310 311 310 310 310 310 310 309 309 308 308 309 307 303 299 297 295 293 291 289 288 286 286 287 286 286 285
310 310 312 313 314 313 310 309 308 311 311 310 310 310 309 308 309 310 310 310 310 310 309 309 309 309 308 307 307 306 304 302 298 294 293 291 289 287 286 286 286 286 286 285
311 312 312 311 313 313 303 307 309 304 305 306 305 304 305 305 305 306 307 308 308 308 308 308 307 307 306 306 306 305 304 301 296 293 291 288 287 286 285 285 286 285 285 284
303 300 300 301 303 301 299 299 300 300 302 300 300 300 301 302 302 304 305 306 306 306 307 306 307 307 306 304 304 304 303 299 296 291 288 286 285 285 285 286 285 284 286 282
294 296 296 297 299 297 297 297 299 299 298 298 299 299 300 302 302 303 303 303 304 305 305 305 305 304 304 305 302 300 297 296 293 289 287 285 284 285 285 283 284 287 282 281
291 291 291 291 291 292 293 293 294 295 295 294 293 293 294 294 296 298 300 301 302 303 303 304 305 304 304 303 301 299 297 294 290 287 285 283 283 285 284 285 287 283 280 279
291 290 290 290 291 292 292 291 291 291 290 289 289 291 292 293 295 296 297 298 298 299 302 303 303 303 303 301 299 296 294 291 287 286 283 282 284 283 286 285 282 279 278 277

GFSCGP_850_thetae_033.txt.gz
Theta_e
312 310 312 311 312 312 312 312 312 312 313 313 313 313 313 314 312 313 315 316 316 317 317 317 317 315 314 313 311 310 309 308 306 306 304 303 303 301 300 300 300 299 299 298
312 312 311 311 311 312 312 313 314 313 313 311 312 312 312 312 313 313 314 315 316 317 317 317 316 316 314 314 312 310 309 308 307 307 306 304 304 301 300 300 299 299 298 298
312 312 313 313 313 314 313 313 313 312 312 310 310 311 311 311 313 314 314 316 316 316 315 315 315 315 314 313 312 311 310 308 307 306 304 303 300 299 298 298 297 297 297 297
311 312 312 312 313 313 314 311 312 312 313 314 310 314 311 311 311 311 313 314 316 317 316 315 314 314 314 313 312 311 309 308 307 306 304 304 304 303 303 300 299 299 296 296
312 312 311 312 313 310 313 311 311 312 311 312 313 312 313 310 310 310 311 315 317 316 315 314 314 314 314 313 312 311 309 307 307 307 305 304 303 302 301 300 299 298 296 295
310 311 312 311 310 311 310 312 311 310 308 312 311 313 314 309 312 310 311 313 316 316 314 314 314 314 313 312 310 309 309 307 307 306 305 305 304 302 300 299 298 297 296 295
309 309 309 310 311 309 311 312 312 312 310 314 310 311 314 311 309 310 311 313 316 315 313 313 313 313 313 312 310 309 307 307 306 305 305 305 304 303 301 299 298 297 296 295
311 311 309 308 311 311 309 312 314 313 312 313 308 310 312 311 312 313 314 316 315 312 313 313 313 312 312 311 310 308 307 307 307 306 306 305 304 302 301 300 299 297 296 296
310 311 309 307 309 311 310 311 311 313 305 308 313 310 309 310 308 308 309 311 310 312 313 312 312 311 311 310 310 309 309 308 308 308 306 305 305 304 303 301 299 297 295 294
310 312 308 306 307 307 308 307 312 312 314 312 312 310 312 312 311 310 307 306 310 311 311 311 311 310 310 310 310 310 309 309 308 307 306 305 304 304 303 301 299 298 294 293
308 311 310 305 306 308 305 308 308 309 312 314 314 313 308 309 310 310 308 309 309 310 311 311 311 311 310 309 310 310 309 308 307 307 307 306 304 303 301 301 299 297 294 292
309 311 313 311 306 306 307 310 311 312 313 308 311 313 310 310 309 310 310 312 312 312 311 311 311 311 310 310 309 310 309 308 308 308 306 305 303 302 300 299 299 296 293 292
311 311 314 312 309 304 306 306 309 309 309 312 313 313 311 311 308 308 307 310 312 311 312 311 311 311 311 310 310 310 309 309 309 308 306 304 303 301 300 299 297 294 292 291
312 311 314 317 314 310 310 309 308 308 310 311 312 312 312 312 312 312 312 311 311 311 310 311 311 310 310 310 310 310 310 309 308 307 305 303 302 301 299 298 296 293 292 291
312 312 311 312 313 313 313 312 311 311 311 312 311 309 310 310 310 310 310 310 310 310 311 312 312 310 310 311 310 310 309 308 308 307 305 304 302 300 298 297 295 293 291 290
309 312 312 313 311 311 313 312 312 311 311 311 311 312 311 310 310 310 310 310 309 309 309 309 310 310 311 312 311 310 310 309 307 306 305 303 302 300 298 297 294 292 291 290
311 310 312 314 311 312 313 312 312 312 311 311 311 310 310 310 310 310 311 310 310 310 309 310 310 311 312 311 310 309 309 308 308 306 304 303 301 299 297 295 293 291 290 289
308 309 311 314 312 314 310 309 310 311 310 310 310 310 310 310 310 310 310 310 310 310 310 310 311 311 311 311 309 308 308 308 307 306 303 301 299 297 295 294 292 291 289 288
308 310 312 313 314 313 311 309 309 309 310 309 309 309 309 310 310 309 309 307 308 309 310 311 311 311 310 309 309 308 308 308 307 305 303 300 298 297 295 293 291 289 289 288
308 310 312 313 315 315 311 309 309 309 312 300 303 301 300 303 308 308 303 303 304 304 305 307 309 310 309 308 308 308 308 308 307 307 304 300 297 295 293 291 290 288 287 286
305 307 310 311 312 312 302 301 302 311 303 298 299 299 299 301 301 300 301 300 300 301 302 304 303 304 305 307 307 307 307 307 306 304 301 299 296 294 292 290 289 287 286 284
297 299 301 302 309 311 297 299 298 295 294 295 297 296 297 297 297 298 299 299 298 299 299 300 303 305 302 301 302 306 306 305 304 302 298 296 294 292 290 289 288 287 285 284
295 297 293 292 296 294 295 292 291 293 296 296 296 296 295 294 295 295 297 296 297 298 299 300 300 303 305 304 301 300 299 299 301 299 296 293 290 289 288 288 286 284 283 283
288 289 290 289 291 290 290 290 291 291 290 291 291 290 290 291 291 292 293 294 295 296 297 297 299 300 301 303 303 304 303 303 300 296 293 291 288 287 287 286 285 284 283 282
289 289 287 288 289 289 290 290 289 288 288 288 287 286 287 288 289 289 290 290 292 292 294 295 296 298 298 301 302 302 303 303 300 297 292 289 286 285 285 284 284 283 283 288
289 289 289 288 289 288 288 287 285 286 283 282 281 282 282 281 282 283 284 285 287 289 291 292 292 293 294 295 297 300 301 301 300 299 297 297 292 287 284 282 281 281 283 283

GFSCGP_850_thetae_036.txt.gz
Theta_e
311 309 309 310 310 311 310 309 310 310 311 312 311 312 313 314 312 311 314 315 316 316 317 317 317 317 316 315 315 315 313 312 310 308 306 305 305 305 303 302 300 300 299 298
310 309 309 309 309 310 310 311 311 311 311 310 311 312 312 311 313 314 312 314 315 315 316 317 316 316 315 316 316 315 314 313 311 309 308 306 307 306 304 303 301 300 299 298
311 311 310 310 310 311 310 310 311 311 311 309 309 312 310 309 311 313 314 314 313 314 315 316 317 316 315 315 315 315 314 313 311 309 307 306 304 303 302 302 301 300 298 297
309 310 310 310 311 311 312 310 311 312 311 312 310 313 312 310 310 310 312 313 313 314 316 316 316 315 315 315 315 314 314 313 311 309 308 307 307 306 306 305 303 300 298 297
309 311 310 310 311 310 313 310 310 310 309 310 310 310 313 309 310 311 311 313 315 316 316 316 316 315 315 314 314 314 313 312 311 309 308 307 306 305 306 305 303 300 299 298
309 310 310 309 310 308 309 311 310 306 307 311 311 311 313 309 310 310 310 313 315 316 316 316 313 315 315 314 314 313 312 311 310 309 308 307 306 306 305 304 303 302 300 298
307 308 308 310 310 309 310 310 311 310 310 313 309 309 313 310 310 309 310 313 316 316 316 315 314 314 313 314 313 313 311 311 310 309 308 306 306 306 305 305 304 303 301 300
309 312 308 307 310 310 308 311 312 310 312 313 306 310 313 309 310 312 312 313 315 316 315 313 314 314 313 313 313 312 310 310 310 309 308 307 306 306 306 305 304 303 301 300
308 309 308 307 308 309 309 310 310 310 300 306 310 310 311 309 307 307 308 312 311 313 313 313 313 313 313 313 312 312 311 310 309 309 307 307 306 306 306 305 304 303 302 299
309 311 307 305 306 306 308 308 311 309 311 311 310 310 312 311 310 309 309 306 311 311 311 311 312 312 312 312 311 311 311 310 310 309 308 307 307 307 306 305 305 303 302 299
308 309 311 306 306 309 306 308 307 308 312 315 316 314 314 313 307 307 306 309 312 311 311 311 311 311 310 310 310 310 310 309 309 309 309 308 308 307 304 304 303 303 301 299
308 311 314 313 311 305 306 308 309 312 313 310 313 314 312 311 308 306 306 309 310 311 311 311 311 310 310 310 310 310 310 310 310 309 309 309 308 307 305 303 303 302 301 299
308 311 314 313 310 310 309 309 308 309 310 313 313 313 312 312 311 309 306 310 310 310 312 310 310 311 311 311 310 310 310 310 309 309 309 308 307 306 305 304 303 301 300 297
311 312 313 315 313 311 310 309 310 309 311 312 312 311 311 311 310 310 311 311 311 311 311 311 311 310 311 311 311 311 309 309 309 309 309 307 306 306 305 304 303 301 299 297
311 314 313 313 312 312 313 314 313 310 309 310 311 310 309 309 310 310 310 309 309 309 309 310 310 311 311 312 312 311 310 309 310 309 309 308 307 306 304 303 302 300 298 296
305 312 311 313 312 311 312 312 312 313 314 313 314 313 312 312 312 312 312 311 311 310 310 310 310 310 310 310 310 310 310 309 311 310 309 308 307 305 303 302 300 299 296 295
304 306 308 309 309 310 312 313 312 312 312 313 314 312 311 311 311 311 310 306 303 304 304 303 305 308 309 310 310 310 311 311 310 310 309 307 306 305 303 301 299 298 296 294
302 302 304 306 306 308 308 310 310 311 311 306 303 301 300 299 299 302 302 300 300 299 300 299 300 302 304 307 308 310 310 310 310 309 308 307 305 304 302 300 298 297 295 293
299 301 305 306 306 307 308 304 303 305 303 294 295 295 297 296 297 303 297 296 297 297 297 297 297 299 301 302 305 307 307 308 308 308 307 307 306 304 301 299 298 296 294 293
298 302 305 307 309 311 296 297 293 298 304 293 293 295 296 295 296 295 295 296 296 297 298 296 294 297 299 302 301 304 305 306 307 307 308 308 305 302 301 299 298 296 294 292
286 286 292 296 297 298 292 293 292 304 294 292 294 295 294 295 295 293 292 292 291 292 292 294 294 293 298 301 303 303 301 301 302 302 305 305 304 302 298 296 295 294 292 290
289 292 293 290 288 294 290 291 289 290 291 293 293 291 291 291 290 290 290 290 291 291 291 292 292 293 295 298 300 301 302 302 298 299 300 300 299 298 297 295 293 291 290 289
288 291 289 289 289 290 290 290 289 290 292 290 288 289 289 288 288 288 288 289 289 289 289 290 291 291 292 294 297 297 299 301 301 302 302 298 295 293 292 292 291 289 288 287
287 288 287 286 288 288 289 288 289 289 288 287 287 287 286 284 284 285 285 285 285 285 285 286 288 290 290 292 293 295 297 298 299 301 301 301 297 294 291 290 288 288 287 286
287 288 287 288 289 288 288 288 288 287 285 285 285 283 283 282 282 281 281 281 281 282 282 283 284 285 287 288 289 290 291 293 295 297 299 301 300 298 297 295 291 289 288 287
289 289 288 288 289 289 289 288 286 284 282 280 280 280 281 279 279 279 279 279 279 279 279 279 279 280 281 282 284 287 288 290 292 294 294 295 298 299 297 293 289 289 285 284

GFSCGP_850_thetae_042.txt.gz
Theta_e
310 307 308 309 307 308 307 306 305 305 307 307 309 308 308 309 310 310 311 311 311 312 315 314 314 315 315 315 315 316 316 315 314 314 314 312 313 311 309 307 306 304 303 301
307 307 307 307 306 307 307 308 308 308 308 307 307 309 309 309 309 310 311 311 312 312 313 314 314 314 314 314 314 314 314 314 315 314 314 313 313 312 310 309 307 304 303 301
308 309 308 308 308 307 306 307 308 307 306 306 306 309 308 308 308 310 310 312 312 312 314 315 315 314 313 313 314 314 314 313 314 314 313 312 310 309 308 308 306 305 302 301
307 307 308 307 308 307 309 306 307 307 308 309 308 312 308 309 308 307 310 312 314 314 314 314 314 314 313 313 313 314 313 313 312 313 313 312 312 312 312 311 309 307 304 303
308 307 308 308 309 307 309 308 308 308 307 307 306 308 310 307 307 308 307 311 314 314 314 315 315 314 313 313 313 313 313 312 313 313 313 312 311 311 310 310 309 306 305 304
307 307 307 307 307 306 307 309 306 304 305 309 308 308 315 308 308 309 307 312 313 315 315 314 313 313 314 313 312 313 313 313 312 312 311 311 311 310 310 309 308 307 305 304
306 307 307 307 309 307 308 308 310 309 309 313 306 308 313 309 308 307 309 310 313 314 313 312 313 313 313 312 311 310 311 312 312 311 310 309 309 308 309 309 309 308 306 305
310 315 307 305 308 309 306 308 311 313 313 315 305 307 313 308 307 309 309 311 312 312 311 312 312 312 313 313 311 311 310 309 310 310 309 309 308 308 308 308 308 308 308 307
307 309 307 305 306 307 307 308 308 310 308 309 311 308 309 312 312 309 307 308 310 310 310 312 313 312 312 312 311 311 310 309 308 309 308 307 307 308 308 308 307 307 306 306
309 311 307 306 305 305 306 306 309 306 311 313 310 311 312 311 311 310 307 308 311 311 312 312 313 313 311 312 312 312 311 310 307 307 307 307 306 306 306 307 307 307 306 305
307 310 313 307 305 310 306 306 306 307 311 315 316 314 311 312 311 309 307 308 309 310 311 311 310 309 310 309 309 308 307 307 308 307 307 307 307 305 306 307 307 307 306 305
310 312 314 312 310 307 307 310 310 312 315 312 312 313 311 310 311 310 310 309 309 309 305 307 307 307 308 308 309 310 309 308 305 304 304 305 307 306 305 307 307 307 306 305
311 311 314 314 310 307 309 309 309 310 311 312 314 313 310 309 309 309 309 305 304 302 301 301 301 300 300 302 305 307 308 308 308 305 303 303 302 301 304 306 307 306 306 306
309 310 313 313 313 310 311 310 307 307 309 312 312 312 310 310 303 301 300 301 298 297 296 296 297 297 297 295 295 300 303 304 305 306 305 304 304 306 306 303 305 306 305 305
305 307 308 307 303 303 304 303 303 302 302 304 304 304 306 298 296 296 297 296 295 295 294 294 293 293 293 293 293 294 297 301 302 303 304 305 307 306 305 304 304 303 303 304
297 298 299 298 299 299 298 296 296 297 298 299 302 305 295 294 293 293 294 293 292 291 291 292 291 291 291 290 292 291 293 295 298 301 301 302 302 305 305 303 303 302 303 302
295 294 287 297 296 293 292 294 295 296 297 295 299 294 293 293 292 291 293 292 291 290 290 290 290 290 290 289 290 290 291 292 295 298 299 299 300 301 304 304 302 302 303 302
291 286 284 288 285 289 293 295 294 294 292 293 293 292 292 293 292 290 291 293 289 289 289 289 288 288 289 289 289 288 290 291 291 294 297 299 296 297 299 300 302 301 301 301
293 293 287 290 289 294 297 292 289 289 289 289 291 292 292 292 291 289 289 288 289 289 288 287 287 287 287 287 287 286 287 289 290 291 293 297 298 296 294 295 298 297 297 299
289 293 295 286 291 288 288 288 289 289 287 286 288 288 290 291 288 288 288 288 288 287 286 286 286 286 286 286 285 285 285 286 286 288 290 291 295 298 297 293 292 293 295 294
278 275 280 275 278 283 288 289 288 283 285 287 288 288 291 286 287 288 288 288 287 286 285 285 284 284 285 285 284 284 284 284 284 285 287 287 290 293 297 298 292 290 291 292
284 279 277 274 275 283 288 288 287 288 288 288 288 288 290 289 288 287 287 287 286 286 285 285 283 284 284 284 283 283 282 282 284 284 285 286 286 289 293 296 297 291 290 289
287 286 283 283 284 287 289 289 289 288 288 288 288 289 290 287 286 286 285 284 284 283 283 283 282 281 282 282 282 281 282 282 283 282 283 284 284 287 289 291 294 295 291 288
287 288 288 288 289 289 289 289 289 288 288 288 288 288 286 285 284 283 282 282 281 281 280 280 280 281 282 281 280 279 280 280 280 281 281 282 282 283 286 289 290 292 293 291
289 287 286 288 288 288 288 288 288 288 288 287 286 285 283 281 281 280 280 280 279 278 278 277 277 277 278 279 280 278 276 277 279 279 279 280 281 281 282 285 288 289 291 292
290 289 289 289 289 289 289 289 287 287 285 283 282 282 281 278 278 277 276 276 276 276 275 275 275 274 274 272 272 274 274 273 273 276 278 278 278 279 280 281 283 287 288 288

GFSCGP_850_thetae_045.txt.gz
Theta_e
309 307 308 309 307 307 307 306 305 305 307 305 308 308 307 308 308 308 309 310 310 310 314 314 314 313 313 313 313 313 313 313 314 314 313 313 313 313 312 311 311 308 306 305
307 307 307 306 305 306 306 307 307 307 307 305 307 308 309 308 309 309 309 309 311 313 314 314 314 313 313 313 313 314 313 312 312 312 313 312 314 313 312 312 310 308 306 304
308 309 307 306 307 307 305 307 308 307 305 305 305 309 308 309 308 309 311 312 312 314 313 314 313 312 312 312 313 314 314 314 313 312 311 311 310 310 311 312 310 309 307 304
306 307 307 307 308 306 308 306 307 307 307 309 307 312 309 309 309 308 311 311 313 313 314 313 312 312 312 313 313 312 311 311 312 311 310 310 310 311 312 313 313 311 308 306
308 307 307 308 308 306 308 308 307 307 307 306 306 308 312 307 308 309 307 311 312 312 314 313 312 313 313 314 313 313 312 312 311 310 310 309 309 309 309 310 311 310 308 306
306 306 306 307 307 306 306 308 304 303 305 309 308 308 316 307 308 308 309 311 312 313 313 311 312 313 313 313 312 312 312 311 310 310 308 309 309 308 307 307 308 309 308 306
307 307 307 307 308 306 307 307 310 311 309 314 306 307 313 310 306 309 308 310 311 311 310 311 312 312 310 311 311 311 311 310 308 308 308 307 306 306 307 307 307 306 307 306
310 316 306 305 308 310 306 309 313 315 315 315 305 309 314 310 309 310 310 310 309 311 310 311 309 309 309 309 310 311 311 311 309 308 305 304 305 306 306 306 306 305 306 306
309 310 305 304 306 307 307 308 308 311 308 310 312 309 310 310 308 307 308 309 310 311 307 308 309 308 307 307 308 310 310 310 308 308 306 304 303 303 303 303 303 303 304 304
309 312 308 306 305 305 306 305 309 306 312 314 312 311 311 311 309 308 306 305 304 303 304 305 306 306 306 305 306 307 307 308 308 306 306 306 304 303 301 301 301 301 302 303
307 310 313 310 308 311 309 306 306 306 309 313 313 312 311 310 308 306 302 302 302 302 298 298 299 301 301 301 300 300 303 304 305 305 305 305 304 303 303 303 301 301 300 301
309 313 314 311 308 306 306 309 308 312 312 311 312 313 310 309 308 305 301 300 297 297 296 297 296 295 296 297 298 297 296 298 301 303 305 304 303 301 302 301 302 302 300 300
310 311 313 310 308 306 310 309 310 310 310 312 313 312 306 304 304 302 297 296 294 293 292 292 293 293 295 293 292 293 294 293 295 299 302 303 302 302 302 304 302 300 301 301
309 309 312 314 312 310 311 307 304 304 305 307 306 306 304 303 299 295 297 294 292 291 290 290 290 291 292 293 293 292 293 294 292 293 297 300 301 301 302 303 302 300 301 300
303 307 308 307 302 301 301 301 300 299 300 300 300 299 298 295 294 292 295 293 293 292 289 289 289 290 289 289 290 292 292 292 292 292 292 296 299 298 299 301 302 300 298 300
297 299 298 297 298 299 299 297 296 296 296 294 294 296 293 294 292 291 291 291 293 291 288 288 288 288 287 288 288 287 288 289 291 289 290 292 297 299 298 297 299 300 298 296
296 296 294 297 296 294 291 292 294 294 292 294 296 292 290 292 292 291 290 290 292 288 288 288 288 287 287 287 286 286 286 286 288 289 289 289 289 296 298 298 296 295 298 296
293 285 284 283 281 287 292 291 293 295 292 292 291 290 291 291 292 292 289 289 288 288 288 288 287 287 286 286 286 286 286 286 286 286 288 287 287 287 292 298 298 297 295 297
292 293 285 284 280 289 293 290 288 288 288 288 288 288 289 289 292 291 289 289 288 287 287 287 286 286 286 286 285 285 286 286 285 285 285 285 284 286 286 288 295 296 294 295
290 292 291 280 286 285 287 287 290 286 286 285 287 286 286 288 290 289 288 288 288 288 287 287 286 286 285 285 284 284 284 284 284 285 284 285 284 283 284 284 288 293 294 292
278 275 287 277 282 282 287 289 288 284 286 287 288 288 286 287 287 288 289 289 288 287 287 286 285 285 285 285 283 283 282 283 282 283 283 284 284 283 283 283 284 288 293 291
285 279 275 271 273 282 287 288 287 288 289 288 288 288 287 288 288 288 289 288 287 286 285 285 284 284 284 283 282 281 281 281 281 281 282 283 283 283 283 282 283 284 288 290
286 286 282 283 283 286 288 288 289 289 288 288 288 288 288 287 288 288 286 285 284 283 283 282 281 281 281 280 279 279 280 279 279 279 280 281 282 283 283 282 282 283 284 288
286 288 287 287 289 288 289 289 289 289 288 288 288 287 286 285 285 283 282 281 280 280 280 279 278 278 277 277 277 277 276 276 275 275 277 278 280 282 282 282 281 281 282 284
288 287 285 287 288 289 288 289 288 288 287 286 286 284 282 280 281 279 278 278 277 276 276 275 275 275 274 274 274 274 273 273 272 271 272 274 275 276 279 281 280 280 281 282
289 289 288 288 289 289 289 289 288 286 285 283 281 282 282 277 276 274 274 273 273 272 272 271 271 270 270 269 269 269 269 268 267 267 268 270 271 270 274 276 280 280 280 281

GFSCGP_850_thetae_048.txt.gz
Theta_e
310 313 314 315 314 315 313 313 314 314 314 313 313 313 313 312 312 312 313 313 313 313 313 312 312 312 312 313 313 313 313 312 312 312 312 312 313 313 313 314 314 313 312 310
311 313 314 312 310 311 312 313 314 315 313 310 313 313 313 314 313 313 312 313 313 313 313 312 313 313 313 312 312 311 311 311 311 311 311 311 311 312 312 312 313 313 313 311
315 316 311 310 312 311 312 312 314 314 312 312 312 317 315 315 312 312 311 311 312 313 313 312 312 313 313 312 312 312 312 312 311 310 310 310 309 310 310 311 312 312 312 311
312 311 310 310 311 312 313 313 311 311 312 316 311 317 317 316 315 314 313 312 312 312 312 312 312 311 310 311 311 311 310 310 310 309 309 308 308 308 309 308 309 310 311 311
314 310 309 311 312 310 313 309 310 310 312 311 314 313 318 314 316 314 313 312 312 312 310 309 307 309 309 310 311 311 311 311 310 309 307 306 307 306 306 305 305 306 307 308
310 306 309 311 308 309 308 310 310 309 311 315 317 315 317 315 314 313 314 313 313 309 307 306 305 307 307 308 309 310 310 310 309 309 308 306 305 305 304 304 304 303 303 305
312 310 309 307 310 308 309 312 317 320 320 320 314 314 315 316 315 312 312 310 307 305 304 305 306 306 305 306 308 308 308 308 308 308 306 305 305 303 303 303 302 302 302 302
317 319 311 309 312 315 312 314 319 323 321 320 316 315 315 314 312 310 307 305 304 304 303 301 301 302 303 304 304 304 306 307 306 305 305 304 304 303 302 302 303 302 302 303
317 317 308 306 308 311 311 313 312 314 316 318 314 314 315 315 310 307 307 307 305 303 302 302 301 301 302 302 301 301 301 303 304 305 305 305 304 303 302 301 300 300 301 303
312 315 313 309 306 307 310 310 314 312 315 317 314 314 315 315 313 308 306 304 302 300 300 299 302 301 299 299 298 299 299 299 299 300 302 303 303 303 301 299 300 299 299 299
311 314 315 313 314 314 312 310 309 310 313 316 317 316 313 312 309 306 303 301 299 298 296 295 294 296 298 298 298 297 298 298 298 297 298 299 301 302 301 301 298 297 298 298
312 314 315 314 312 311 311 313 314 317 317 314 314 314 312 311 306 300 300 299 296 294 293 293 292 292 292 293 295 297 296 296 296 297 296 296 297 299 301 301 300 298 296 296
312 313 315 315 313 309 311 311 311 312 312 314 315 314 310 307 304 299 298 296 295 294 292 290 290 291 291 291 290 291 291 292 293 294 295 296 296 296 298 299 299 298 299 296
306 308 313 314 312 310 310 312 309 307 308 309 309 308 306 304 300 297 295 294 293 293 291 289 289 289 289 289 289 289 288 289 289 290 291 291 291 292 294 297 299 298 297 297
303 307 306 306 303 302 303 303 302 302 303 303 303 302 302 298 295 294 293 291 290 292 291 289 289 289 289 288 288 287 287 287 287 287 287 289 291 290 289 292 294 299 299 297
298 301 299 299 300 300 300 299 299 299 299 299 299 299 294 294 293 292 292 290 290 291 290 288 288 288 288 288 287 287 286 286 286 287 287 287 287 287 288 289 289 292 297 298
297 298 299 299 298 295 296 297 297 297 297 296 295 296 292 291 290 290 290 290 290 291 289 288 288 288 287 287 286 286 286 285 285 285 286 286 286 286 286 286 287 288 289 294
295 294 295 295 291 294 296 293 295 296 295 295 295 292 290 290 289 289 290 291 290 290 289 288 288 288 287 287 286 286 285 285 285 285 285 285 285 285 285 285 285 284 285 288
294 294 293 293 294 293 293 293 292 292 292 294 293 291 290 289 289 289 290 289 289 289 288 288 288 287 287 287 286 285 285 284 284 284 284 284 284 284 284 284 284 284 284 284
291 293 294 287 293 292 293 290 290 289 291 290 290 291 290 289 289 290 289 288 288 288 288 288 288 287 287 286 285 284 284 283 284 282 282 282 282 283 283 284 284 284 284 284
290 290 293 294 293 292 292 290 289 290 291 289 290 289 289 291 290 289 288 288 288 288 288 287 286 285 285 284 283 282 281 281 281 280 281 281 281 281 282 282 283 283 284 284
291 289 289 284 287 290 288 289 289 291 290 289 289 289 289 289 288 288 288 288 287 286 285 285 283 282 282 281 280 279 279 279 279 278 278 278 279 280 280 280 282 282 281 282
289 290 290 289 290 290 289 289 289 289 289 289 289 289 288 287 287 286 285 284 283 282 281 280 279 279 278 278 277 277 277 277 276 276 276 276 276 276 276 277 278 279 279 278
290 290 289 290 290 290 290 290 289 289 289 289 288 287 285 283 283 283 281 280 279 277 276 275 274 274 274 274 273 273 273 273 273 273 273 272 271 271 271 272 273 274 276 276
291 289 290 290 290 290 289 289 289 288 288 287 286 284 283 281 281 278 276 276 274 273 272 271 270 270 269 268 268 267 267 267 267 267 266 266 266 266 267 268 270 271 273 274
291 290 290 291 290 290 290 290 288 287 286 284 283 283 280 278 276 275 274 272 271 270 269 267 266 265 264 264 263 262 263 263 262 262 262 263 263 263 264 265 267 269 270 271

GFSCGP_850_thetae_051.txt.gz
Theta_e
313 314 315 316 316 315 317 317 317 318 318 317 317 316 316 316 316 316 316 316 316 315 314 312 311 311 311 311 311 310 310 310 310 310 311 311 312 314 314 314 314 315 314 314
313 315 316 317 315 314 316 317 317 317 318 315 315 316 316 316 317 317 316 315 315 315 313 312 312 311 311 311 311 310 310 310 310 310 310 310 310 311 312 312 312 313 313 313
316 318 315 315 316 316 316 317 317 316 316 315 316 317 319 318 317 316 314 313 313 314 312 310 309 309 310 310 310 310 310 309 308 308 307 308 308 309 309 309 310 310 310 311
317 315 314 314 315 315 316 315 315 315 315 318 316 318 318 319 319 317 315 315 314 312 309 307 307 308 309 309 309 310 309 309 309 308 307 306 306 307 307 307 307 307 307 307
317 313 312 313 314 313 315 312 312 313 314 316 317 317 319 319 318 315 315 309 309 308 306 305 305 305 305 306 308 308 309 309 308 307 305 305 305 305 305 305 305 305 305 304
313 309 311 313 312 311 311 312 314 315 315 318 319 319 319 317 316 315 312 308 307 306 305 303 302 302 304 305 305 305 306 307 308 308 307 305 303 303 303 304 304 304 303 303
317 314 311 310 311 311 310 314 319 321 322 322 320 319 318 317 317 313 311 308 307 306 305 303 302 301 300 298 298 301 303 303 304 305 306 306 306 304 303 302 302 303 302 302
316 316 313 311 313 316 315 316 319 325 324 323 319 318 317 316 312 309 309 308 306 305 303 303 301 300 300 302 302 300 300 301 301 301 301 302 303 304 304 303 302 301 300 300
316 317 311 311 312 312 316 314 314 316 317 319 317 316 316 316 313 310 309 307 304 303 301 299 299 299 299 299 299 299 299 297 296 296 298 299 299 299 301 303 302 301 300 299
315 317 315 313 309 310 311 310 315 315 317 318 315 315 315 314 313 309 307 304 302 300 298 297 296 296 297 298 298 299 300 300 301 300 298 298 297 297 297 299 301 301 300 299
312 314 314 314 313 313 313 314 313 312 314 317 317 315 313 313 309 306 303 302 300 298 297 295 294 293 293 293 293 293 294 294 294 295 296 295 296 295 295 295 297 299 300 299
313 314 316 313 312 311 312 313 313 314 314 314 314 314 313 312 304 302 301 300 297 296 295 293 292 291 291 291 290 290 290 290 290 289 290 291 292 293 293 292 293 295 297 299
311 312 312 312 309 312 313 312 311 312 313 315 316 315 311 309 307 300 299 298 296 295 295 292 291 290 290 290 289 288 288 288 288 288 288 288 288 288 289 290 291 291 292 295
307 309 312 313 312 309 309 308 307 309 311 311 311 309 308 306 304 299 297 295 293 292 293 293 290 290 290 289 289 288 288 288 288 288 287 287 287 287 287 287 287 288 290 290
305 307 307 307 306 304 303 304 304 304 305 306 306 305 304 303 298 297 295 294 292 291 291 292 290 289 289 289 289 288 287 287 287 287 287 287 286 286 286 286 286 286 286 286
300 304 302 301 301 301 302 302 301 301 301 301 301 301 301 295 294 294 292 291 291 291 291 291 290 289 289 288 288 288 287 287 287 286 287 287 286 286 286 286 286 286 286 285
300 300 301 301 299 298 297 297 298 298 299 299 298 298 294 294 292 291 290 290 291 291 291 290 290 289 289 289 288 288 287 287 286 286 286 286 286 286 286 286 286 286 285 285
297 297 297 297 295 295 296 295 296 296 296 297 297 296 293 291 291 290 290 290 290 290 289 289 289 289 289 289 288 287 286 286 285 284 284 284 285 285 285 286 286 286 285 285
295 295 295 294 296 296 294 295 294 294 294 294 295 294 292 291 290 290 290 290 290 289 289 289 289 289 289 288 287 286 285 284 284 283 283 283 283 282 283 283 284 285 285 285
292 295 296 295 293 293 294 292 291 291 292 293 294 292 291 290 290 291 290 289 289 289 289 289 289 288 287 286 285 284 283 283 282 282 281 281 281 281 280 281 282 282 282 283
292 293 295 295 295 294 294 291 290 291 292 291 291 291 290 292 291 290 289 289 289 288 287 287 286 285 285 283 281 281 280 280 280 279 279 279 279 279 279 278 278 278 279 280
291 292 292 292 293 293 292 291 290 292 291 290 290 290 290 290 289 289 288 287 287 286 285 284 282 281 280 279 277 276 276 276 276 276 275 275 275 276 277 276 275 274 274 274
290 292 292 292 292 292 290 291 290 291 291 290 290 290 290 288 287 286 285 284 283 281 280 279 278 277 277 275 273 272 272 271 271 270 270 269 269 270 270 270 270 270 271 271
291 291 292 292 291 292 291 291 290 290 290 290 290 289 286 284 284 283 282 280 279 278 277 275 275 275 274 272 270 268 267 266 265 264 264 264 264 264 265 266 266 267 268 269
292 292 292 292 292 291 291 290 290 290 290 289 288 286 285 283 282 280 279 278 276 275 274 273 273 272 271 269 267 266 265 264 263 262 262 262 262 262 263 263 264 265 266 267
291 292 292 292 291 291 291 290 290 289 288 287 286 284 282 281 279 278 277 275 274 274 273 272 271 269 268 266 265 264 263 263 262 262 262 262 262 262 262 262 263 264 265 267

GFSCGP_850_thetae_054.txt.gz
Theta_e
313 313 313 313 313 313 314 314 315 315 316 316 315 314 313 315 315 315 316 316 315 312 311 311 311 311 310 310 310 309 310 310 309 310 311 312 314 316 317 317 317 318 317 317
313 313 314 315 316 315 315 314 315 315 316 315 314 313 314 314 314 316 315 315 314 311 311 310 309 309 309 308 308 308 308 308 308 308 310 310 310 312 313 314 314 314 314 315
315 316 316 315 315 315 315 315 315 316 314 314 313 314 314 316 317 315 314 312 309 309 309 308 308 308 308 309 309 309 308 307 307 307 307 307 307 308 309 309 309 310 309 310
317 315 314 315 316 315 316 314 313 313 313 315 314 315 315 315 315 310 311 308 307 306 306 306 306 307 308 307 308 308 308 308 308 308 308 307 306 306 306 307 306 306 306 306
318 313 312 313 314 314 314 312 312 312 312 313 314 314 314 314 313 309 308 307 305 304 304 303 304 305 305 306 306 306 307 307 307 307 307 306 305 305 306 306 305 305 305 305
312 310 310 312 312 312 310 312 312 312 312 315 315 315 316 314 312 309 308 307 306 304 303 303 303 304 304 305 305 306 306 307 306 305 305 305 305 305 305 304 304 304 303 304
314 312 311 311 311 310 310 312 316 318 315 317 316 315 316 315 314 309 308 306 305 304 302 301 300 300 300 300 300 300 302 303 304 305 305 306 305 304 303 304 304 304 303 302
315 314 312 310 311 315 312 315 318 319 318 318 314 315 316 311 309 308 307 305 303 301 300 298 297 297 297 297 297 297 297 296 296 296 298 300 301 302 302 302 302 302 303 303
313 314 311 311 312 313 314 314 313 314 307 311 314 314 313 312 309 308 305 303 301 299 298 297 296 295 294 294 294 293 294 293 293 292 292 292 293 295 296 298 298 299 300 301
313 315 315 309 310 310 311 310 313 313 315 310 312 311 311 312 309 305 304 302 300 298 297 295 294 293 292 292 291 291 290 290 290 291 291 290 290 290 291 292 293 294 296 297
312 313 314 312 313 312 310 311 311 312 313 315 314 311 310 308 304 302 302 301 299 297 296 294 293 292 292 292 290 289 289 289 289 289 289 289 289 288 288 288 288 288 290 293
312 314 311 312 310 309 309 309 310 313 315 312 313 313 309 304 302 302 300 299 298 297 295 293 291 291 291 291 290 289 289 288 288 288 288 288 287 287 288 287 287 287 287 287
311 310 306 303 305 309 310 309 310 308 310 311 312 312 308 305 301 300 300 298 296 293 293 294 292 290 290 289 289 289 288 288 288 287 287 287 287 287 287 287 287 286 286 286
309 308 306 306 305 308 308 307 306 306 306 305 306 306 307 305 303 298 297 296 294 292 291 291 293 291 289 289 289 289 288 288 288 288 287 287 286 286 286 286 287 286 286 286
305 306 307 307 306 304 302 302 302 302 301 302 301 301 301 301 300 295 293 292 291 291 291 291 291 290 290 289 289 288 288 288 288 288 288 288 287 286 286 286 286 286 286 286
300 298 299 294 300 300 300 300 300 300 301 301 301 300 299 294 294 292 291 290 290 290 290 290 290 290 289 289 289 289 288 288 287 287 287 287 287 287 286 286 286 286 286 286
298 296 293 292 298 294 292 295 296 297 297 297 297 295 293 293 292 291 290 290 290 290 290 290 289 289 289 289 289 289 289 288 287 286 286 286 285 284 284 284 284 285 285 285
294 291 293 288 287 289 293 294 294 294 294 294 294 292 292 291 291 290 290 290 290 290 290 289 289 289 289 289 289 288 287 287 285 284 283 283 283 283 283 283 282 282 283 283
294 295 290 286 285 291 293 293 292 293 291 291 292 292 293 291 290 289 290 290 290 289 289 289 289 288 288 287 286 286 285 282 281 281 281 281 281 281 281 281 281 281 281 281
291 293 293 286 287 285 289 290 291 290 287 291 292 289 290 290 288 289 291 290 289 289 288 288 287 287 286 285 283 282 280 279 278 277 276 276 277 277 278 278 279 279 280 279
286 286 292 292 292 289 292 290 291 287 288 292 290 290 291 288 289 290 290 289 288 288 287 287 286 285 283 281 280 279 278 277 274 273 273 272 271 272 272 273 274 275 276 275
288 286 285 285 286 291 292 290 290 291 291 291 290 290 290 290 290 290 289 288 287 287 286 285 283 282 281 279 278 277 275 274 273 271 269 267 266 266 266 266 266 266 268 269
288 289 287 288 287 292 291 290 291 291 290 290 290 290 290 290 289 288 287 286 286 285 283 281 280 280 279 277 274 273 272 271 269 267 266 265 265 265 265 264 264 264 264 265
289 291 288 288 290 290 291 291 291 291 290 290 290 290 289 288 287 286 285 284 283 281 280 280 279 278 277 275 273 272 271 268 267 265 265 264 264 265 265 264 264 263 263 264
290 290 288 289 290 291 291 291 291 290 290 290 290 289 288 287 286 284 283 282 280 280 279 277 276 276 275 273 272 271 269 267 265 264 264 264 264 263 263 263 263 263 264 264
291 291 290 290 291 290 291 291 291 291 290 289 289 288 286 286 284 282 281 280 279 278 276 276 275 273 273 272 272 270 268 264 263 263 263 263 263 263 263 263 263 265 265 265

GFSCGP_850_thetae_060.txt.gz
Theta_e
311 308 309 309 309 310 310 310 309 309 310 312 311 311 310 312 312 308 306 305 304 304 304 305 305 306 307 308 309 310 310 309 310 311 312 316 318 319 319 319 319 318 318 317
310 309 310 309 309 310 310 310 310 311 310 312 312 311 308 305 305 306 305 304 302 302 303 304 305 305 306 306 306 306 307 307 307 308 308 309 311 312 312 313 314 314 314 315
311 312 310 310 311 313 312 312 311 312 312 309 311 311 310 305 305 304 303 302 301 301 302 303 304 304 304 305 305 305 305 306 306 306 306 306 307 307 307 307 307 307 306 307
311 311 312 311 313 313 314 312 311 312 310 311 310 313 311 306 304 302 301 301 301 301 301 301 301 302 301 301 302 303 304 305 305 305 305 305 305 305 304 304 304 304 304 305
315 313 312 313 313 311 313 310 310 310 309 310 310 310 309 306 306 303 301 301 301 300 300 299 299 299 299 299 299 300 300 301 301 301 302 303 303 303 303 303 303 303 303 303
311 310 309 310 309 310 309 310 309 307 308 312 311 310 311 307 306 303 302 301 300 299 298 298 298 298 298 298 298 298 298 298 298 298 298 298 299 299 299 300 300 300 300 300
312 311 309 309 310 308 308 309 313 313 312 315 311 310 311 307 305 303 301 300 298 297 298 298 298 298 297 297 297 296 296 296 295 295 295 295 294 294 294 294 294 294 295 296
314 313 309 308 310 310 307 310 314 312 315 314 309 312 311 303 303 302 301 299 298 298 298 297 297 296 296 295 293 293 293 293 292 292 292 291 291 291 291 291 291 290 290 291
313 312 309 308 309 310 311 312 312 310 296 307 311 308 306 302 300 299 298 298 297 297 297 296 295 294 293 291 290 290 290 289 289 289 289 289 289 289 289 289 289 289 289 289
311 313 311 309 309 308 310 309 312 309 308 307 309 310 310 304 302 299 298 297 297 297 296 295 294 293 292 290 290 289 289 289 289 288 288 288 288 288 288 288 287 287 287 287
310 310 311 310 310 310 309 309 310 310 309 308 306 308 306 305 302 300 299 300 299 298 296 295 294 293 293 292 291 289 289 289 289 288 288 288 288 287 287 287 287 287 287 287
311 310 307 311 307 307 308 308 309 311 310 308 309 310 305 304 302 302 302 301 300 298 296 294 293 292 292 291 290 289 289 289 288 288 288 288 287 287 287 287 286 286 286 285
309 308 302 304 304 307 308 308 307 306 304 302 308 307 301 301 300 301 301 300 298 296 293 292 292 292 291 290 290 289 289 288 288 288 288 288 288 287 287 286 286 285 285 285
308 303 305 311 304 304 304 306 305 304 302 303 305 304 301 301 299 297 296 297 294 292 291 291 291 291 290 289 289 289 288 288 288 288 288 288 288 287 287 286 284 284 284 284
305 302 303 303 305 305 304 304 303 303 301 302 303 301 301 296 296 296 293 292 291 290 290 290 290 290 289 289 288 288 288 288 288 288 288 287 286 285 284 283 282 282 282 281
298 298 296 294 300 301 300 301 301 302 301 299 300 299 297 293 293 290 290 290 290 290 290 290 289 289 288 288 288 288 288 287 287 285 284 283 283 282 282 281 281 280 280 280
299 295 292 292 292 292 291 292 297 297 296 296 296 296 291 290 289 289 289 290 290 290 290 290 289 289 288 288 288 287 287 286 284 283 282 282 281 281 281 281 280 280 279 278
294 290 286 285 283 288 292 291 293 294 293 292 292 289 291 292 291 290 290 290 289 289 290 289 289 288 288 287 287 286 285 283 282 282 281 281 280 280 279 279 278 277 276 275
295 294 288 289 281 289 293 292 291 292 290 288 291 290 293 291 289 289 290 290 289 289 289 289 288 288 287 286 285 284 282 282 281 281 280 279 278 278 277 277 275 273 272 271
293 295 290 276 283 286 286 287 290 288 288 287 289 288 290 289 286 287 290 289 289 289 289 288 288 287 287 286 284 282 281 280 279 279 278 277 277 276 276 274 273 272 270 269
284 287 296 284 281 284 288 289 290 288 288 289 291 292 290 286 290 290 290 290 289 289 289 288 287 287 286 284 282 281 281 279 278 278 277 276 275 275 274 273 271 270 269 269
287 287 287 286 290 287 289 288 289 290 291 292 292 291 291 290 290 290 290 290 289 289 288 287 287 286 285 282 281 280 279 278 278 277 277 276 274 273 272 271 270 269 269 268
288 288 286 287 287 289 290 292 292 292 292 291 291 290 290 290 290 290 290 289 289 288 287 287 286 285 282 281 280 279 278 278 277 276 276 275 274 272 271 270 269 269 269 268
288 287 287 286 288 289 290 293 292 291 291 291 290 290 290 290 290 290 289 289 288 287 286 286 284 282 281 280 279 278 277 276 276 276 275 274 273 272 271 269 268 268 268 267
289 287 285 286 288 289 290 291 291 291 290 290 290 290 290 290 290 289 289 288 287 286 286 284 282 280 280 279 278 276 276 275 275 275 274 273 272 271 270 269 268 267 267 264
290 289 289 288 290 290 291 291 291 291 290 290 290 290 290 290 290 289 288 286 286 286 285 281 280 280 279 278 276 275 275 274 273 273 273 272 271 271 269 268 268 271 268 266

GFSCGP_850_thetae_063.txt.gz
Theta_e
310 308 309 309 308 310 311 309 309 308 309 311 310 310 308 305 305 304 303 302 302 301 302 304 304 306 307 308 309 309 310 310 312 315 318 319 319 319 319 317 317 316 316 316
309 309 309 309 308 309 309 310 309 309 309 310 311 311 305 303 303 303 301 300 300 300 302 302 303 305 305 306 306 306 307 307 307 308 308 310 311 311 312 312 312 313 313 313
311 312 310 309 309 310 310 310 311 312 311 309 310 310 307 303 302 301 301 300 300 300 301 301 302 302 303 304 304 305 305 305 305 305 305 305 305 305 305 305 305 305 304 305
310 310 311 310 311 310 313 311 311 312 310 311 309 312 308 304 302 300 299 299 299 299 299 299 299 299 299 300 300 301 301 301 301 301 302 302 303 303 302 302 302 302 303 303
314 313 312 312 311 311 313 310 310 309 308 309 309 310 308 304 304 301 299 299 298 297 297 297 297 297 298 298 299 299 300 300 300 300 300 299 299 298 298 298 299 299 298 299
312 310 309 310 309 310 308 308 308 306 307 311 309 310 311 305 305 301 300 299 298 297 297 296 296 296 297 297 297 297 297 298 297 297 297 296 295 295 295 295 295 295 294 294
311 310 309 308 309 308 308 307 311 313 312 314 309 310 311 305 303 302 300 299 297 297 296 296 297 297 296 296 295 295 295 295 293 294 294 293 293 292 292 292 291 292 292 292
313 314 309 307 309 309 306 308 312 312 313 313 309 313 310 301 301 301 300 298 297 296 297 297 296 295 295 294 293 293 293 293 292 292 291 291 290 290 290 290 290 290 290 290
313 313 308 307 308 309 308 309 309 309 294 306 310 307 303 300 299 298 298 297 297 297 297 296 295 295 294 293 292 291 291 290 290 290 289 289 289 289 289 289 288 288 288 288
311 312 310 308 308 307 309 307 311 308 307 308 309 309 309 302 300 297 296 296 297 297 296 296 295 294 292 292 290 289 289 289 288 288 288 288 288 287 287 287 286 286 286 286
309 310 310 309 309 309 308 309 309 309 308 306 305 307 305 304 301 298 297 298 299 298 297 295 294 293 292 291 290 289 289 289 288 288 287 288 288 287 287 286 286 286 285 285
309 310 307 310 306 306 307 308 308 313 311 306 307 310 301 303 301 299 298 299 299 298 296 295 293 292 292 291 290 289 289 288 288 288 287 288 287 287 286 286 285 285 285 284
310 310 304 310 307 306 307 307 306 305 303 307 308 308 300 300 300 301 301 301 300 298 296 294 292 292 292 290 290 289 288 288 288 287 287 287 287 287 286 285 285 284 283 283
308 306 307 312 308 305 305 306 305 304 303 306 306 303 302 300 299 300 300 300 300 297 295 292 292 291 291 290 290 289 288 288 288 287 287 287 286 285 284 284 283 283 283 283
306 310 305 304 305 305 304 305 305 303 303 306 305 304 302 299 298 299 299 298 296 292 291 291 291 291 290 289 289 288 287 287 287 287 287 286 284 283 283 283 282 282 282 282
299 305 302 303 298 299 302 302 304 303 303 301 302 303 298 300 295 295 296 295 291 290 290 290 290 290 289 289 288 288 287 287 287 286 285 284 283 283 282 282 282 282 282 281
301 299 301 304 292 293 297 297 302 303 301 303 302 300 291 288 291 292 292 291 290 290 290 290 290 289 289 288 288 288 287 287 286 285 283 283 282 282 282 281 281 281 281 280
296 294 292 293 287 292 296 291 292 299 296 294 292 288 290 292 292 292 293 291 290 289 289 289 289 289 289 288 287 287 287 286 284 283 283 282 282 281 281 281 280 280 279 278
295 296 291 297 288 291 295 291 290 292 292 290 292 290 292 291 289 289 290 290 290 289 289 289 289 289 288 287 287 287 286 284 283 282 282 281 280 280 280 280 280 278 277 276
293 294 298 281 290 292 287 287 289 289 289 286 290 288 289 288 286 287 291 290 289 289 289 289 289 288 288 287 287 286 284 282 282 281 280 280 279 279 279 278 278 277 276 275
291 293 298 287 292 287 288 289 289 288 290 287 291 292 290 286 291 291 291 290 289 289 289 289 288 287 287 286 285 284 282 281 280 280 279 279 278 277 277 277 276 276 275 273
289 292 288 291 292 292 289 289 290 291 290 292 292 292 291 292 291 291 290 290 290 289 289 289 288 287 286 286 284 282 281 280 280 279 278 277 277 276 276 276 276 274 273 272
288 289 288 291 291 289 289 292 292 292 293 292 292 291 291 291 290 290 290 290 289 289 289 288 287 286 286 284 282 280 280 280 279 278 278 277 276 276 275 275 274 273 272 271
287 286 287 287 288 288 290 292 293 292 292 292 291 291 290 290 290 290 290 290 289 289 288 287 286 285 284 282 280 280 279 279 278 278 277 276 276 275 275 274 273 272 271 270
289 287 284 285 288 289 290 291 292 292 292 291 291 290 290 290 290 290 290 289 289 288 288 286 286 285 282 280 280 279 278 277 277 276 275 275 275 275 274 273 272 271 271 269
288 286 288 287 291 291 291 292 291 291 291 291 291 290 290 290 290 290 290 289 288 288 286 285 285 283 280 280 279 278 277 276 275 275 274 274 274 274 273 272 272 273 271 270

GFSCGP_850_thetae_069.txt.gz
Theta_e
309 308 310 310 307 309 308 309 311 309 308 309 308 308 306 302 301 300 299 300 301 302 302 304 306 308 311 315 318 320 321 321 320 319 320 319 319 317 315 313 313 312 312 312
307 308 309 308 307 308 309 309 309 308 307 308 308 309 304 301 301 300 299 299 299 300 301 302 304 306 308 310 311 313 315 316 316 315 313 313 311 307 305 304 304 304 304 305
309 310 307 308 307 308 307 308 308 311 310 308 309 310 305 300 299 299 298 299 299 299 300 301 302 303 304 305 306 306 306 306 305 305 305 304 303 302 301 301 301 300 300 300
308 308 310 308 309 309 310 306 308 309 311 313 308 316 306 302 300 298 297 298 298 297 297 298 298 298 299 300 301 301 301 301 301 301 300 300 300 299 297 295 294 294 294 294
312 309 309 311 312 308 312 307 307 309 310 308 308 310 307 302 302 299 297 297 297 296 295 295 295 296 296 296 297 298 298 298 297 298 298 297 297 295 293 293 293 293 293 292
311 309 309 310 308 308 305 307 306 305 306 310 309 311 310 304 304 300 297 297 296 295 294 294 294 295 295 295 296 296 296 295 294 294 294 294 293 292 292 292 292 291 291 290
311 310 308 307 307 306 306 308 311 312 311 313 307 308 311 304 302 301 298 297 296 295 294 294 294 293 294 294 294 294 294 294 293 293 292 292 292 291 291 291 290 290 290 290
315 316 309 306 308 309 305 308 312 313 313 313 308 311 311 301 301 301 299 298 296 294 294 293 293 293 293 293 293 293 293 293 291 291 291 291 291 291 290 290 290 289 289 289
313 314 307 305 305 307 307 308 308 308 295 307 309 309 302 300 299 299 297 296 295 294 294 293 292 292 292 292 292 291 291 291 291 291 290 290 290 290 289 289 288 288 287 287
311 314 308 306 307 306 307 306 310 308 309 309 310 309 311 302 300 298 297 296 296 295 294 293 293 292 291 291 291 291 290 291 290 290 290 289 289 288 288 287 287 286 285 285
308 311 309 307 307 308 307 308 307 308 309 310 308 309 304 304 300 298 298 296 296 296 295 295 294 292 292 291 290 290 290 290 289 289 289 288 287 287 286 286 286 286 285 285
308 310 309 307 305 304 306 307 308 312 308 304 306 308 300 301 301 299 298 297 297 297 296 296 295 292 291 290 290 290 289 289 289 288 288 287 287 287 286 286 286 286 285 285
308 312 312 312 308 305 307 305 306 305 305 304 309 309 300 300 299 299 298 298 297 296 296 295 293 292 292 291 290 290 290 289 288 288 287 287 287 287 287 286 285 285 284 284
309 310 312 318 312 306 307 306 305 308 304 306 310 306 303 300 300 298 298 298 297 297 297 296 294 293 292 291 290 290 289 289 288 288 287 287 287 287 287 286 285 284 283 283
311 312 306 304 303 305 305 304 305 306 308 311 307 308 305 303 301 300 300 298 298 298 297 297 295 294 292 291 290 289 289 289 288 288 287 288 287 287 286 285 284 283 283 282
304 311 309 307 301 302 305 304 303 305 305 305 303 305 302 303 302 300 300 298 297 298 298 297 296 295 293 291 291 290 289 289 288 288 288 287 287 287 285 284 283 283 282 282
305 304 307 309 298 302 307 304 303 303 302 305 306 307 295 296 298 300 300 299 300 300 299 299 298 295 293 291 291 290 289 289 288 288 288 287 287 286 284 283 282 282 281 281
304 304 304 299 299 306 301 291 295 304 302 301 296 294 296 298 298 300 301 302 301 300 298 297 296 294 291 291 290 289 289 289 288 288 287 287 286 284 283 282 281 281 280 280
298 301 297 301 303 301 302 291 293 296 298 299 301 295 293 293 295 295 299 299 298 296 296 295 293 291 290 290 289 289 289 288 288 287 287 286 285 283 282 281 280 280 279 279
296 297 307 294 303 305 297 288 290 292 295 291 296 292 290 290 293 292 295 296 295 294 294 292 290 289 289 289 289 289 288 288 287 287 286 285 283 281 281 280 280 279 278 278
297 297 303 298 303 299 293 288 290 295 298 288 291 293 290 290 294 294 293 294 293 293 291 289 289 289 289 289 288 288 288 287 287 286 286 283 281 281 280 280 279 278 278 277
296 298 295 294 297 301 289 288 292 293 291 292 291 293 293 294 293 292 291 291 292 291 290 289 289 289 289 289 288 288 287 287 286 286 284 281 281 280 279 279 278 277 276 276
293 294 294 295 296 289 290 292 293 293 293 292 293 294 294 293 292 291 291 291 291 290 290 289 289 289 289 288 288 288 287 286 286 285 282 281 280 279 278 278 277 276 276 275
286 287 289 290 289 289 290 292 292 293 294 294 293 293 292 292 292 291 291 290 290 290 289 289 289 289 289 288 288 287 286 286 285 283 281 280 280 279 278 277 276 275 275 274
288 287 285 285 288 289 291 292 294 293 292 292 292 292 292 292 291 291 290 290 290 289 289 289 289 289 289 288 287 286 286 285 284 281 280 280 279 278 277 276 275 275 274 273
287 287 288 288 290 291 292 293 293 293 292 292 292 292 291 291 291 291 290 290 290 289 289 289 289 289 288 288 287 286 285 285 282 280 279 279 278 277 276 276 275 274 273 272

GFSCGP_850_thetae_072.txt.gz
Theta_e
312 315 316 317 316 317 317 316 317 315 313 313 316 316 314 307 306 305 304 303 302 300 304 306 310 317 318 319 320 321 322 322 322 322 320 320 319 318 316 316 315 314 312 311
312 315 317 313 314 314 314 316 316 314 312 312 315 314 314 307 307 305 304 302 301 299 300 304 308 314 317 317 317 318 318 318 318 319 318 318 315 309 306 305 305 304 304 304
317 316 312 312 311 312 313 315 316 316 313 312 313 316 313 305 303 301 301 300 300 299 299 302 305 308 312 314 315 316 316 315 314 313 310 306 304 302 301 299 299 297 297 297
313 312 310 311 312 312 315 312 313 314 315 320 313 322 316 310 305 302 300 300 298 297 298 300 302 304 306 306 306 306 305 304 304 303 302 301 300 299 296 296 295 294 294 294
315 311 313 314 313 311 315 311 313 313 316 315 315 318 319 307 307 304 301 300 298 296 297 298 299 301 301 301 301 300 300 299 298 298 298 298 297 295 294 293 293 293 292 292
313 309 311 313 310 311 309 311 310 310 313 318 318 317 322 311 310 306 301 299 297 295 294 294 295 295 295 296 296 296 296 296 295 295 295 295 295 293 292 292 291 291 290 290
315 313 309 309 313 309 311 314 320 318 317 322 311 315 319 312 307 306 302 299 297 295 293 293 294 294 294 294 294 294 295 295 294 294 293 293 292 291 291 290 289 289 289 289
320 321 313 310 316 316 312 317 322 325 320 318 310 314 315 306 304 304 301 300 297 294 293 293 293 293 293 293 294 294 294 294 293 292 292 291 291 290 290 290 289 289 289 289
319 320 310 307 308 314 311 312 313 311 305 316 317 314 307 303 303 302 301 299 296 294 293 292 292 292 292 293 292 293 293 292 291 291 291 290 289 289 289 289 289 288 288 288
316 320 309 307 308 307 311 311 314 314 320 322 317 315 318 307 305 303 301 299 297 295 293 292 292 292 292 292 292 291 291 291 290 290 289 289 289 289 288 288 288 287 287 286
312 314 311 308 311 314 310 311 312 313 315 321 320 317 311 311 307 304 302 299 297 295 294 292 292 291 291 291 291 291 290 290 290 289 289 289 288 288 288 287 287 286 286 286
313 313 316 312 307 306 311 313 313 317 314 313 315 317 305 306 307 304 302 300 298 296 294 293 292 291 290 290 290 290 290 290 289 289 289 288 288 287 287 287 287 286 286 285
312 315 320 317 309 307 309 309 311 314 313 317 319 318 304 304 304 303 302 301 299 296 295 293 292 291 290 290 290 290 290 290 289 289 288 288 287 287 287 287 287 286 286 285
310 314 319 323 319 314 312 311 310 313 317 317 316 316 307 305 305 303 302 301 299 297 295 294 292 291 291 291 290 290 290 289 289 288 288 287 287 287 287 287 287 286 285 285
310 314 315 316 307 308 310 312 310 312 313 316 316 313 311 308 306 305 303 301 300 296 295 295 294 292 291 291 290 290 290 289 289 288 288 288 288 288 288 287 286 285 284 283
307 313 311 315 305 306 309 308 310 310 312 312 310 310 309 308 305 305 303 301 298 296 296 295 294 294 293 291 290 290 290 289 288 288 288 288 288 288 288 287 286 284 282 282
306 308 312 315 302 306 312 311 308 309 309 309 310 312 304 303 304 305 303 300 299 298 297 296 296 296 295 293 292 291 290 289 289 288 288 288 288 287 287 286 284 282 282 281
306 309 310 305 303 312 305 296 302 309 309 307 305 304 304 305 303 303 303 302 300 298 297 295 296 297 296 294 292 291 290 289 288 288 288 288 288 287 286 284 282 282 281 281
297 304 301 306 308 306 306 296 297 304 307 304 305 304 300 295 296 298 300 301 302 300 298 297 298 298 297 295 292 291 290 289 289 288 288 287 287 287 285 282 281 281 281 281
298 299 308 301 308 310 308 294 291 299 304 299 303 303 296 293 301 303 300 300 300 299 299 299 298 297 296 294 291 290 289 289 288 288 288 287 287 286 282 281 281 281 281 280
300 300 305 303 307 306 300 292 291 303 306 292 296 298 293 297 300 298 298 298 298 297 295 295 295 294 292 290 290 289 289 289 288 288 287 286 286 284 282 281 281 281 280 280
302 303 303 303 305 307 291 290 298 299 292 294 294 295 296 296 296 295 295 295 294 294 293 293 292 291 290 290 289 289 289 288 288 287 287 286 285 282 281 281 280 280 279 279
300 302 303 302 304 292 291 294 294 294 294 293 294 295 295 295 293 292 292 292 292 292 292 291 291 290 289 289 289 289 288 288 288 287 286 286 283 281 281 281 280 280 279 278
290 289 296 297 293 292 291 292 293 294 294 294 294 294 294 294 293 292 291 291 291 291 291 290 290 289 289 289 289 288 288 288 287 286 285 285 281 281 281 280 280 279 278 277
292 290 290 291 289 290 292 293 296 294 292 292 292 293 293 292 292 292 291 291 291 290 290 290 290 290 289 289 289 288 288 287 286 285 285 284 281 280 280 280 279 278 277 276
289 290 292 294 292 294 295 296 295 293 293 292 292 291 291 291 291 291 291 291 290 290 290 290 290 289 289 289 289 288 288 287 286 285 285 283 280 280 280 279 278 276 276 275

GFSCGP_850_thetae_075.txt.gz
Theta_e
315 317 319 319 318 319 320 320 320 320 318 316 318 319 319 313 312 313 311 309 307 305 302 307 313 315 318 318 318 320 322 324 324 323 322 321 319 318 317 316 315 314 312 310
315 317 318 319 318 318 319 319 319 320 318 314 317 318 319 317 313 312 311 309 307 303 302 304 312 315 317 318 319 320 321 321 320 319 318 318 317 316 313 308 306 304 303 302
319 319 317 318 316 317 317 318 319 319 318 315 316 318 319 318 312 309 308 307 305 303 302 302 306 314 315 316 317 317 317 317 318 318 317 316 309 305 302 301 300 299 298 297
317 318 315 316 316 315 318 318 316 317 317 319 318 322 322 320 311 308 306 305 304 302 301 300 301 307 312 313 314 315 315 315 313 309 305 303 301 299 296 296 295 295 294 293
317 314 315 316 316 315 317 315 315 316 317 319 320 320 320 317 313 311 307 304 303 301 299 299 298 303 307 309 310 310 310 307 304 302 301 300 298 296 295 294 294 293 292 292
315 312 314 315 313 314 313 314 314 314 317 322 320 321 322 319 316 313 307 304 302 300 298 296 296 299 301 301 301 301 300 299 298 297 296 296 296 294 293 292 292 291 290 290
316 315 313 313 314 312 314 316 321 323 320 322 317 322 322 318 312 312 307 304 301 299 296 294 295 296 297 297 296 296 296 295 295 295 295 294 294 293 292 291 290 290 290 289
322 322 316 313 317 318 315 317 323 328 325 323 312 318 320 309 309 309 306 303 301 298 296 294 293 294 294 295 294 294 295 295 294 294 294 293 292 291 291 290 290 289 288 288
322 323 315 315 315 317 316 318 318 318 311 318 319 316 311 307 307 307 305 302 300 297 295 293 292 293 293 293 293 293 294 293 293 292 292 291 291 291 290 289 288 288 288 288
321 323 314 313 311 313 316 315 316 318 324 325 323 321 320 310 308 306 305 302 300 297 295 293 292 292 293 293 293 293 293 293 292 292 291 290 290 289 288 288 288 288 288 288
318 319 314 310 313 316 313 315 316 318 319 324 324 321 316 316 310 307 305 303 300 297 295 293 292 292 292 292 292 292 291 291 291 290 290 289 289 288 288 288 288 288 288 287
317 318 323 315 312 312 315 316 316 319 319 317 319 321 309 311 311 307 305 303 300 298 295 294 293 292 291 291 291 291 290 290 290 290 289 289 288 288 288 288 288 288 287 287
316 314 322 319 313 309 311 313 315 315 318 321 322 321 307 307 309 308 306 303 301 298 296 294 293 292 291 291 290 290 290 290 289 289 289 288 288 288 288 288 288 287 287 286
314 314 320 325 320 315 313 313 312 315 318 319 319 319 309 309 308 307 306 304 302 299 297 295 293 292 291 290 290 290 289 289 289 289 289 288 288 288 288 288 288 287 286 286
313 313 314 317 316 311 314 315 313 313 315 318 318 317 316 311 309 307 306 304 302 299 297 296 294 292 291 290 290 290 289 289 289 289 288 288 288 288 288 288 287 287 286 284
309 314 314 316 316 313 311 311 314 313 313 314 315 317 311 312 309 308 306 304 303 301 299 297 295 293 291 290 290 290 290 290 290 289 288 288 288 288 288 288 287 287 285 283
308 310 312 317 312 308 311 311 312 313 312 313 314 314 308 307 308 308 307 305 303 302 300 297 296 294 292 290 290 290 291 290 290 289 289 288 288 287 287 287 287 286 283 283
306 309 310 314 307 314 310 300 311 312 312 311 310 308 308 307 307 307 307 306 304 302 300 298 296 294 292 291 291 292 291 290 290 289 289 288 287 287 287 287 287 285 283 282
300 308 307 311 311 312 309 303 306 310 312 310 309 309 306 302 303 304 305 304 304 304 302 299 297 294 291 291 293 292 292 291 290 289 289 288 287 287 287 287 287 283 282 282
299 302 310 306 312 313 313 298 296 304 309 307 306 308 304 297 307 308 303 303 302 302 300 298 296 294 292 295 295 297 292 291 290 290 288 287 287 287 287 287 286 282 282 282
303 304 309 308 311 310 306 295 294 308 312 298 304 304 297 302 305 301 300 300 301 301 300 298 297 295 294 296 299 295 292 291 291 289 288 287 287 287 287 287 283 282 282 282
306 307 306 308 309 308 294 292 299 300 294 295 299 301 301 300 299 298 298 298 298 298 297 297 297 296 296 297 295 293 292 291 290 288 288 288 288 287 287 286 282 282 282 282
304 305 307 307 307 294 293 295 295 294 295 295 296 297 297 297 297 296 295 295 295 295 295 294 295 295 295 294 292 291 290 289 289 288 288 288 287 287 286 284 282 281 281 281
295 293 299 301 296 294 293 293 294 295 295 295 296 296 295 296 295 293 293 293 293 293 292 292 292 292 292 291 290 289 289 289 289 288 288 287 287 286 286 283 281 281 281 281
295 293 295 296 292 292 293 294 295 295 294 294 294 294 294 295 294 293 292 292 291 291 291 291 291 291 291 290 290 289 289 289 288 288 287 286 286 286 285 282 280 280 280 280
292 294 295 299 295 297 297 298 297 294 295 294 293 293 293 294 293 292 292 292 291 291 291 291 290 290 290 290 289 289 289 288 288 287 287 286 285 285 284 282 280 280 280 279